[TLELIST] Archives

 

[TLELIST] Current TLEs

April 29th 2024 PDT

HST 1 20580U 90037B 24119.85786097 .00007717 00000-0 37014-3 0 9991 2 20580 28.4691 315.4633 0002026 214.1569 145.8893 15.17027156669532 ISS (ZARYA) 1 25544U 98067A 24120.22726588 .00019100 00000-0 33314-3 0 9997 2 25544 51.6367 198.1689 0003612 120.7165 239.4180 15.50729139450958 CXO 1 25867U 99040B 24120.27235969 .00001005 00000-0 00000+0 0 9997 2 25867 40.0637 158.6729 8932772 292.9099 1.1410 0.37811371 25539 ...Continue Reading

[TLELIST] Current TLEs

April 28th 2024 PDT

HST 1 20580U 90037B 24118.93683811 .00010641 00000-0 51402-3 0 9996 2 20580 28.4692 321.6271 0002066 202.9554 157.0946 15.17013852669399 ISS (ZARYA) 1 25544U 98067A 24119.46939495 .00095887 00000-0 16259-2 0 9998 2 25544 51.6380 201.9259 0004617 126.3534 320.1249 15.50709927450831 CXO 1 25867U 99040B 24120.27235969 .00001005 00000-0 00000+0 0 9997 2 25867 40.0637 158.6729 8932772 292.9099 1.1410 0.37811371 25539 ...Continue Reading

[TLELIST] Current TLEs

April 28th 2024 PDT

HST 1 20580U 90037B 24118.93683811 .00010641 00000-0 51402-3 0 9996 2 20580 28.4692 321.6271 0002066 202.9554 157.0946 15.17013852669399 ISS (ZARYA) 1 25544U 98067A 24119.46939495 .00095887 00000-0 16259-2 0 9998 2 25544 51.6380 201.9259 0004617 126.3534 320.1249 15.50709927450831 CXO 1 25867U 99040B 24120.27235969 .00001005 00000-0 00000+0 0 9997 2 25867 40.0637 158.6729 8932772 292.9099 1.1410 0.37811371 25539 ...Continue Reading

[TLELIST] Current TLEs

April 28th 2024 PDT

HST 1 20580U 90037B 24118.93683811 .00010641 00000-0 51402-3 0 9996 2 20580 28.4692 321.6271 0002066 202.9554 157.0946 15.17013852669399 ISS (ZARYA) 1 25544U 98067A 24119.46939495 .00095887 00000-0 16259-2 0 9998 2 25544 51.6380 201.9259 0004617 126.3534 320.1249 15.50709927450831 CXO 1 25867U 99040B 24120.27235969 .00001005 00000-0 00000+0 0 9997 2 25867 40.0637 158.6729 8932772 292.9099 1.1410 0.37811371 25539 ...Continue Reading

[TLELIST] Current TLEs

April 27th 2024 PDT

HST 1 20580U 90037B 24117.68686161 .00011350 00000-0 54929-3 0 9993 2 20580 28.4693 329.9910 0002239 191.2696 168.7846 15.16986266669205 ISS (ZARYA) 1 25544U 98067A 24118.50350111 .00030700 00000-0 53140-3 0 9998 2 25544 51.6394 206.7140 0003646 114.1545 336.7203 15.50650339450684 CXO 1 25867U 99040B 24120.27235969 .00001005 00000-0 00000+0 0 9997 2 25867 40.0637 158.6729 8932772 292.9099 1.1410 0.37811371 25539 ...Continue Reading

[TLELIST] Current TLEs

April 27th 2024 PDT

HST 1 20580U 90037B 24117.68686161 .00011350 00000-0 54929-3 0 9993 2 20580 28.4693 329.9910 0002239 191.2696 168.7846 15.16986266669205 ISS (ZARYA) 1 25544U 98067A 24118.50350111 .00030700 00000-0 53140-3 0 9998 2 25544 51.6394 206.7140 0003646 114.1545 336.7203 15.50650339450684 CXO 1 25867U 99040B 24120.27235969 .00001005 00000-0 00000+0 0 9997 2 25867 40.0637 158.6729 8932772 292.9099 1.1410 0.37811371 25539 ...Continue Reading

[TLELIST] Current TLEs

April 27th 2024 PDT

HST 1 20580U 90037B 24117.68686161 .00011350 00000-0 54929-3 0 9993 2 20580 28.4693 329.9910 0002239 191.2696 168.7846 15.16986266669205 ISS (ZARYA) 1 25544U 98067A 24118.50350111 .00030700 00000-0 53140-3 0 9998 2 25544 51.6394 206.7140 0003646 114.1545 336.7203 15.50650339450684 CXO 1 25867U 99040B 24120.27235969 .00001005 00000-0 00000+0 0 9997 2 25867 40.0637 158.6729 8932772 292.9099 1.1410 0.37811371 25539 ...Continue Reading

[TLELIST] Current TLEs

April 26th 2024 PDT

HST 1 20580U 90037B 24116.83160051 .00011834 00000-0 57338-3 0 9998 2 20580 28.4692 335.7135 0002496 183.0790 176.9787 15.16967532669072 ISS (ZARYA) 1 25544U 98067A 24117.41380748 .00034303 00000-0 59428-3 0 9994 2 25544 51.6383 212.1176 0003899 114.6316 9.3095 15.50568597450511 CXO 1 25867U 99040B 24117.62037562 .00000975 00000-0 00000-0 0 9997 2 25867 40.0197 158.9023 8934821 292.7482 0.0244 0.37814089 14373 ...Continue Reading

[TLELIST] Current TLEs

April 26th 2024 PDT

HST 1 20580U 90037B 24116.83160051 .00011834 00000-0 57338-3 0 9998 2 20580 28.4692 335.7135 0002496 183.0790 176.9787 15.16967532669072 ISS (ZARYA) 1 25544U 98067A 24117.41380748 .00034303 00000-0 59428-3 0 9994 2 25544 51.6383 212.1176 0003899 114.6316 9.3095 15.50568597450511 CXO 1 25867U 99040B 24117.62037562 .00000975 00000-0 00000-0 0 9997 2 25867 40.0197 158.9023 8934821 292.7482 0.0244 0.37814089 14373 ...Continue Reading

[TLELIST] Current TLEs

April 25th 2024 PDT

HST 1 20580U 90037B 24115.97632986 .00011004 00000-0 53289-3 0 9993 2 20580 28.4693 341.4370 0002577 173.3927 186.6699 15.16946101669206 ISS (ZARYA) 1 25544U 98067A 24116.31357419 .00043726 00000-0 74591-3 0 9998 2 25544 51.6398 217.5767 0005150 95.7032 1.7002 15.50884989450349 CXO 1 25867U 99040B 24117.62037667 .00000975 00000-0 00000-0 0 9993 2 25867 40.0197 158.9023 8934821 292.7482 0.0246 0.37814106 14375 ...Continue Reading
  • This mailing list is a public mailing list - anyone may join or leave, at any time.
  • This mailing list is announce-only.

International Space Station (ISS) / Hubble Space Telescope (HST) / Chandra X-Ray Observatory Orbital Data via EMAIL

Privacy Policy:

Private list